{"data":{"norad_id":55365,"intl_designator":"2023-013AL","name":"STARLINK-5639","alt_names":[],"object_type":"PAYLOAD","status":"ACTIVE","operator":null,"country":"US","launch_date":"2023-01-26","launch_site_code":"AFETR","launch_vehicle":null,"mission":null,"orbit_class":"UNKNOWN","rcs_meters":null,"size_class":null,"mass_kg":null,"dimensions":null,"purposes":["comms"],"wikipedia_slug":null,"has_3d_model":false,"image_url":null,"decayed_at":null,"tle_current":{"epoch":"2026-05-24T23:33:51.484032Z","epoch_age_seconds":70640,"freshness":"FRESH","line1":"1 55365U 23013AL  26144.98184588 -.00001917  00000+0 -60174-4 0  9992","line2":"2 55365  43.0017 250.4524 0000963 302.3043  57.7716 15.27565686183136","mean_motion":15.27565686,"eccentricity":9.63e-5,"inclination_deg":43.0017,"raan_deg":250.4524,"arg_perigee_deg":302.3043,"mean_anomaly_deg":57.7716,"bstar":-6.0174e-5,"rev_number":18313,"period_min":94.267632036872,"perigee_km":482.43122129116,"apogee_km":483.7526939884,"semimajor_km":6861.2289576398,"source":"CELESTRAK","updated_at":"2026-05-25T13:38:17.766498Z"}}}